Temperature
15 16 16 16 17 18 19 22 24 25 25 26 26 26 25 23 22 20 19 18 18 18 18 18 18 17 17 17 17 17 17 17 17 17 17 16 16 16 16 16 16 16 16 16 16 16 16 16 16
15 15 16 17 17 18 20 22 24 25 25 24 24 25 24 22 20 19 19 18 18 18 18 18 17 17 17 17 17 17 17 17 17 16 16 16 16 16 16 16 16 16 16 16 16 16 16 16 16
15 15 16 17 18 19 22 23 23 24 24 24 24 23 23 21 19 19 18 18 17 17 17 17 17 17 17 17 17 17 17 17 16 16 16 16 16 16 16 16 16 16 16 16 16 16 16 16 16
14 15 17 17 18 21 23 24 23 23 23 23 23 22 20 19 19 18 18 18 17 17 17 17 17 17 17 17 17 17 16 16 16 16 16 16 16 16 16 16 16 16 16 16 16 16 16 16 16
14 16 16 17 19 21 23 24 24 23 23 23 23 21 19 18 18 18 18 17 17 16 16 16 16 16 16 16 16 16 16 16 16 16 16 16 16 16 16 16 16 15 15 15 15 15 15 15 15
14 16 16 17 19 21 23 24 23 23 23 23 22 21 18 17 18 17 17 17 17 16 16 16 16 16 16 16 16 16 16 16 16 16 16 16 16 16 16 16 15 15 15 15 15 15 15 15 15
15 16 16 18 20 21 22 23 23 22 22 23 22 20 17 17 17 17 17 17 16 16 16 16 16 16 16 16 16 16 16 16 16 16 16 16 15 15 15 15 15 15 15 15 15 15 15 15 15
15 16 17 18 19 21 22 23 22 22 22 22 22 20 18 16 16 16 16 16 16 16 16 16 16 16 16 16 16 16 16 15 15 15 15 15 15 15 15 15 15 15 15 15 15 15 15 15 15
14 15 16 18 19 20 22 21 21 21 21 21 20 19 18 17 16 16 16 16 15 15 15 15 15 15 15 15 15 15 15 15 15 15 15 15 15 15 15 15 15 15 15 15 14 14 14 14 14
14 14 16 19 20 20 21 21 20 20 20 19 18 18 17 16 16 15 15 15 15 15 15 15 15 15 15 15 15 15 15 15 15 15 14 14 14 14 15 14 14 14 14 14 14 14 14 14 14
14 15 17 18 19 19 19 20 20 20 19 19 18 17 16 16 15 15 15 15 15 15 15 14 15 15 15 15 15 15 14 14 14 14 14 14 14 14 14 14 14 14 14 14 14 14 13 13 13
15 16 17 17 17 18 18 19 19 19 19 19 18 17 16 16 15 15 15 15 15 14 14 14 14 15 15 15 14 14 14 14 14 14 14 14 14 14 14 14 14 13 13 13 13 13 13 13 13
14 15 16 16 16 17 17 17 18 18 18 18 17 16 16 15 15 15 15 15 15 14 14 14 14 14 14 14 14 14 14 14 14 14 14 14 14 14 14 13 13 13 13 13 13 13 12 12 12
14 15 15 16 16 16 16 16 17 17 17 17 16 16 15 15 15 15 15 14 14 14 14 14 14 14 14 14 14 14 14 14 14 14 14 14 14 14 13 13 13 13 13 13 12 12 12 12 12
14 14 14 15 15 16 15 15 15 16 16 16 16 15 15 15 15 15 14 14 14 14 14 14 14 14 14 14 14 14 14 14 14 14 14 14 13 13 13 13 13 13 13 12 12 12 12 12 12
14 13 12 14 15 15 14 13 15 16 16 16 16 15 15 15 15 15 14 14 14 13 13 13 13 13 13 13 13 13 13 14 13 13 13 13 13 13 13 13 13 12 12 12 12 12 12 12 11
12 11 12 13 15 14 14 13 15 16 16 16 16 15 15 15 14 14 14 13 13 13 13 13 13 13 13 13 13 13 13 13 13 13 13 13 13 13 13 12 12 12 12 12 12 12 11 11 11
11 11 12 13 14 14 13 13 14 15 16 16 16 15 15 14 14 13 13 13 13 13 13 13 12 12 13 13 13 12 13 13 13 13 13 13 13 12 12 12 12 12 11 11 11 11 11 11 11
12 12 12 13 14 13 13 13 14 15 15 15 15 15 14 14 13 13 13 12 12 12 12 12 12 12 12 12 12 12 12 12 12 12 12 12 12 12 12 12 11 11 11 11 11 11 10 10 10
12 12 12 13 13 13 13 13 13 14 14 14 14 14 14 13 13 13 12 12 12 12 12 12 12 12 12 12 12 12 12 12 12 12 12 12 12 11 11 11 11 11 11 10 10 10 10 10 10
11 11 11 12 12 13 12 12 12 13 14 14 14 14 13 13 13 12 12 11 11 11 11 12 11 11 11 11 11 11 11 11 11 11 11 11 11 11 11 11 11 10 10 10 10 10 10 9 9
10 11 12 11 10 10 11 9 11 12 12 12 13 13 13 13 12 12 11 11 11 11 11 11 11 11 11 11 11 11 11 11 11 11 11 11 11 11 11 10 10 10 10 10 9 9 9 9 9
10 11 11 11 10 9 10 10 11 12 11 12 12 13 12 12 11 11 10 10 10 10 10 10 10 10 10 10 10 11 11 11 11 11 11 10 10 10 10 10 10 10 9 9 9 9 8 8 8
10 10 10 10 9 8 10 10 10 11 12 11 11 12 11 11 11 10 10 10 10 10 10 10 10 10 10 10 10 10 10 10 10 10 10 10 10 10 10 10 9 9 9 9 9 8 8 8 8
9 8 7 7 7 8 10 10 10 11 11 11 10 10 10 10 10 9 9 9 9 9 9 9 9 9 9 9 9 10 9 10 10 10 10 9 9 9 9 9 9 9 9 9 8 8 8 7 7
8 8 7 7 7 8 10 9 9 10 10 10 10 10 9 9 9 9 9 8 8 8 8 8 8 9 8 9 9 9 9 9 9 9 9 9 9 9 9 9 9 8 8 8 8 7 7 7 7
7 8 9 8 8 8 8 9 8 9 9 9 9 8 8 8 8 8 8 8 7 7 8 8 8 8 8 8 8 8 8 8 8 8 8 8 8 8 8 8 8 8 8 7 7 7 7 7 6
7 8 7 7 7 7 8 8 7 7 7 8 7 7 7 7 7 7 7 7 7 7 7 7 7 7 7 7 7 7 7 7 8 8 8 8 8 8 8 7 7 7 7 7 7 7 6 6 6
6 7 7 7 7 7 7 7 8 7 7 7 6 6 6 6 6 6 6 6 6 6 6 6 6 7 7 7 7 7 7 7 7 7 7 7 7 7 7 7 7 7 7 6 6 6 6 6 5
6 6 6 5 6 7 6 6 7 7 7 6 6 6 6 5 6 6 6 6 5 5 5 5 6 6 6 6 6 6 7 7 7 7 7 7 6 6 6 6 6 6 6 6 6 6 5 5 5
Wind_Speed
8 10 7 3 3 5 9 9 6 3 1 1 4 3 3 5 4 9 5 10 16 16 18 17 18 18 17 16 16 16 16 16 16 15 15 15 14 14 15 15 15 14 14 14 14 14 14 13 13
10 8 5 4 5 7 9 10 8 4 4 5 4 3 3 5 8 9 6 11 16 16 17 17 18 18 18 17 17 16 16 15 15 15 15 15 14 14 14 14 14 14 14 14 14 13 13 12 11
11 8 4 4 6 9 7 7 7 4 7 5 2 1 2 4 7 6 8 12 14 15 16 18 18 18 18 17 17 16 16 16 15 15 15 14 14 14 14 14 14 14 14 14 13 13 12 11 10
5 4 5 7 13 12 9 1 5 6 5 5 5 4 4 5 5 8 11 12 14 14 17 18 18 18 18 17 17 16 16 16 15 15 14 14 14 14 14 13 13 13 13 12 12 11 11 10 9
4 4 6 9 14 12 8 1 4 5 6 6 5 4 5 5 9 11 9 11 13 14 17 18 18 17 17 17 17 16 16 15 15 15 14 13 13 13 13 13 12 12 11 11 10 10 9 9 8
4 5 7 12 14 13 8 3 3 4 6 7 6 4 5 6 8 8 8 10 12 13 16 17 18 18 17 17 17 16 15 15 15 14 14 13 13 12 12 12 11 11 10 10 10 9 8 8 7
5 5 10 12 12 11 8 5 5 5 5 6 4 4 6 8 7 7 8 9 12 13 14 14 16 16 17 17 17 16 15 15 15 14 14 13 12 12 11 11 10 10 10 9 9 8 7 7 6
4 4 9 13 12 9 6 5 4 2 2 2 2 3 6 10 8 7 8 8 10 10 11 12 14 15 15 15 16 16 16 15 14 14 14 13 12 11 11 10 10 9 9 8 8 7 6 5 4
4 5 9 11 9 5 3 4 2 1 1 1 4 5 10 14 10 8 8 8 8 9 8 9 10 12 14 14 15 15 15 15 14 13 13 12 10 10 10 10 9 9 8 7 6 5 4 3 2
6 8 11 6 5 3 2 3 4 3 3 2 5 10 13 12 11 10 10 9 9 9 8 7 9 10 11 12 12 12 11 12 11 10 10 8 8 9 10 10 8 8 7 6 4 4 3 2 1
8 9 8 7 4 4 1 2 3 4 5 5 8 11 12 11 10 10 9 9 9 9 8 7 8 9 9 8 9 8 8 8 9 9 8 8 9 9 9 7 6 5 5 3 3 2 1 1 1
9 10 9 6 2 3 1 0 2 4 1 2 7 9 11 11 10 10 9 8 9 9 8 8 8 8 8 8 7 7 6 5 6 7 8 7 5 5 5 4 4 4 3 2 1 1 1 2 2
13 9 8 4 2 3 2 3 3 3 1 3 8 8 9 10 9 8 8 9 8 8 8 7 7 7 7 6 5 6 5 5 7 7 7 7 5 4 4 4 4 3 3 2 1 1 1 2 2
9 9 8 6 5 4 4 4 4 4 3 4 7 7 7 8 8 7 8 9 9 8 8 7 7 7 7 6 5 5 6 7 8 7 7 7 6 5 4 3 3 3 2 2 2 2 2 2 2
7 8 8 8 7 5 3 6 8 5 5 6 7 7 7 8 7 7 8 8 9 9 8 7 7 7 7 6 5 6 7 8 6 6 7 7 7 5 4 3 3 2 2 2 3 3 3 2 2
8 9 9 9 10 7 6 9 8 7 8 7 7 7 7 7 7 7 7 7 8 9 8 7 7 7 7 6 6 6 7 7 6 7 7 7 6 6 5 3 2 3 3 2 1 2 2 2 2
8 11 12 9 12 8 9 7 6 7 8 8 8 7 7 7 7 6 7 8 8 9 9 8 7 7 7 6 6 6 7 7 7 7 6 6 6 5 4 3 2 3 3 2 2 2 2 2 2
11 12 13 12 11 10 10 7 4 6 7 8 7 7 7 7 7 6 6 7 8 8 9 8 7 7 6 5 4 5 5 5 6 7 6 6 6 5 4 3 3 3 2 2 1 1 1 1 1
10 12 11 9 8 10 11 10 8 6 6 6 6 7 7 6 6 6 6 7 7 8 8 8 8 7 6 4 4 4 4 4 4 5 7 7 5 5 4 3 2 3 2 1 1 1 2 2 2
10 10 9 5 7 8 9 10 7 7 7 7 6 6 7 7 6 6 6 6 7 7 8 8 8 7 6 5 4 4 4 3 3 4 5 6 5 5 4 3 2 2 1 1 1 1 1 1 2
11 9 8 6 4 5 5 7 9 7 6 5 6 6 6 7 7 7 6 5 6 7 7 7 7 7 6 6 4 4 4 3 3 3 3 4 5 5 4 3 2 2 1 1 1 1 1 0 1
9 7 6 7 6 4 7 5 9 9 8 8 7 6 6 5 5 6 6 5 5 5 5 6 7 7 6 6 6 7 5 4 4 4 3 3 5 5 4 3 3 2 1 1 0 1 1 1 1
5 4 4 5 5 3 6 5 6 11 10 10 8 6 6 5 5 5 5 4 4 4 5 5 6 6 5 5 6 6 5 4 4 4 5 4 3 4 4 3 2 2 1 1 1 1 1 0 1
4 4 2 1 2 5 9 7 5 8 12 11 9 7 5 5 5 5 5 4 3 3 4 5 5 5 5 5 5 5 5 5 6 5 5 4 3 3 3 3 2 2 2 1 1 1 1 1 1
5 7 4 4 5 6 8 6 3 1 4 7 8 7 5 5 5 5 5 5 4 4 4 5 5 5 5 5 5 5 5 5 6 5 5 4 3 2 3 2 2 2 2 1 1 0 1 1 1
8 7 5 5 6 4 7 6 2 2 5 6 7 6 6 5 4 5 5 4 4 4 4 4 5 5 5 5 4 4 4 4 3 4 4 4 3 3 3 2 2 2 2 1 1 0 1 1 1
5 6 2 0 1 2 5 3 2 4 5 6 6 6 5 4 4 5 4 4 4 4 4 4 5 5 5 5 4 4 4 4 4 4 4 3 3 3 3 2 2 2 1 1 0 1 1 1 1
1 2 1 2 3 3 5 6 5 8 6 6 5 5 4 4 4 4 4 4 4 4 4 3 4 4 4 4 4 4 4 4 4 4 4 3 3 3 3 2 2 1 1 0 0 0 1 1 2
3 3 2 2 2 2 4 2 2 5 7 7 5 5 4 4 3 4 4 4 5 5 4 3 4 4 4 3 4 4 4 4 4 4 4 3 3 3 3 2 2 2 1 0 0 1 1 1 2
2 3 3 3 3 2 1 0 3 5 6 6 6 5 4 4 4 5 5 5 5 5 4 4 4 4 3 3 4 4 4 4 3 3 3 3 3 2 2 2 2 1 1 1 1 1 1 2 2
Wind_Direction
264 250 241 239 231 230 237 240 240 220 208 23 27 20 21 27 48 111 154 123 120 126 131 132 129 128 126 124 122 121 118 115 113 110 108 106 104 103 100 96 93 90 89 87 85 83 83 81 79
260 241 234 230 232 227 230 226 233 200 110 63 35 19 33 68 81 107 126 119 123 126 131 133 130 128 127 126 125 123 121 118 114 111 108 107 105 103 99 96 93 90 88 85 83 83 81 78 76
257 241 225 222 229 229 235 201 192 144 108 115 120 11 29 77 97 111 122 125 122 122 127 130 131 129 128 128 126 124 122 119 115 113 111 108 106 104 99 96 92 89 87 85 83 81 80 77 75
229 215 243 237 236 237 253 226 121 131 128 146 150 117 77 45 79 112 125 129 124 123 123 129 131 130 129 128 126 123 121 119 116 114 112 109 106 105 102 99 96 93 91 89 86 84 82 78 73
235 219 222 232 240 243 244 241 101 142 160 175 178 132 97 68 89 113 132 130 125 124 123 130 130 129 129 129 126 124 122 120 118 116 114 111 109 108 104 102 99 98 96 93 91 87 83 78 72
216 228 221 224 232 236 229 187 150 180 183 178 174 149 108 114 112 128 132 126 122 122 124 130 129 128 126 126 127 125 124 122 120 117 115 113 111 110 107 105 103 101 99 96 94 90 85 79 71
228 229 237 236 231 226 212 182 180 202 192 176 162 143 134 133 126 138 128 120 119 123 128 131 133 130 126 126 126 125 125 122 120 119 117 115 113 112 109 106 104 104 102 98 96 92 85 78 71
251 255 241 242 241 226 192 174 191 211 185 125 125 140 148 137 138 134 119 113 115 121 130 136 138 136 130 126 125 124 123 123 122 121 119 118 115 113 111 106 104 104 104 102 99 96 91 84 75
252 240 233 230 240 234 173 157 166 45 62 36 53 71 115 130 138 128 120 114 117 123 126 132 134 132 131 130 128 124 122 123 123 125 128 126 123 119 112 112 109 107 107 108 107 108 109 108 99
213 226 231 243 260 252 184 157 150 160 167 159 96 98 118 133 143 144 144 141 136 134 132 129 127 126 128 130 130 131 130 131 129 133 137 132 120 116 113 116 118 118 117 116 122 128 133 147 158
210 232 240 258 314 340 57 151 161 192 195 184 154 142 141 145 151 156 155 148 143 138 133 127 125 127 127 125 131 129 129 133 135 133 127 114 111 112 116 121 125 129 130 127 136 161 189 165 124
222 234 242 254 321 319 304 244 214 235 203 112 132 142 148 155 163 164 159 148 137 132 128 127 127 126 124 123 123 124 123 124 117 119 120 117 113 110 116 120 129 130 121 118 139 160 61 57 59
227 230 235 247 252 262 267 246 242 237 76 76 115 137 159 164 164 163 156 145 138 136 132 128 123 126 123 117 120 119 120 119 117 118 113 106 104 99 103 99 99 96 89 75 54 51 52 39 31
216 224 229 226 216 230 232 237 238 219 154 134 138 157 170 167 164 160 151 148 146 143 139 134 128 123 120 119 115 116 117 116 113 112 112 111 106 103 99 95 90 81 71 60 38 29 45 34 33
216 218 225 215 204 200 206 237 223 201 172 169 166 170 174 167 166 164 156 152 148 143 140 138 136 128 123 120 119 117 119 116 115 113 116 111 108 106 102 98 88 79 61 49 34 27 33 18 19
206 212 216 209 200 191 194 231 212 189 189 189 183 174 172 169 169 159 150 147 143 140 140 141 139 131 126 123 121 115 116 115 114 116 113 110 110 106 100 93 93 89 73 59 44 26 24 11 5
198 207 207 201 197 186 203 231 208 190 191 193 188 178 172 165 163 156 150 147 145 142 140 138 136 135 130 124 121 118 115 114 116 114 111 112 113 111 106 103 95 88 74 54 37 33 34 15 358
196 205 206 200 186 193 208 221 210 194 191 195 186 176 169 165 163 152 147 145 143 140 139 140 137 133 128 121 114 113 112 112 112 111 115 116 115 115 107 101 91 85 72 48 39 41 25 24 344
208 210 211 205 177 193 208 216 214 192 191 193 185 172 169 163 152 144 140 141 137 137 139 141 139 136 130 131 135 133 133 129 117 111 118 120 119 114 106 93 87 83 89 78 49 44 27 16 6
233 219 213 191 177 194 208 220 214 195 198 195 186 176 169 160 156 146 142 144 144 147 147 144 145 145 143 146 147 139 132 128 123 119 120 124 120 116 111 102 94 87 97 72 54 59 38 12 31
224 221 209 180 180 208 204 223 214 196 195 193 185 179 170 168 163 154 149 149 151 155 158 155 152 151 148 144 134 123 105 104 113 126 129 127 128 120 115 113 104 91 104 134 118 104 101 39 327
217 220 210 181 171 204 196 215 210 188 192 198 192 178 171 161 154 151 146 148 152 155 150 149 151 149 147 146 147 148 148 149 157 149 141 135 132 127 123 116 109 99 95 105 107 98 106 117 295
209 192 190 190 199 213 205 214 218 180 192 192 185 174 161 149 143 136 134 137 138 142 146 145 145 146 145 148 150 152 148 145 140 141 141 143 131 128 127 125 114 106 92 91 47 49 71 156 213
169 142 142 194 211 227 209 203 232 196 192 181 176 167 153 136 127 127 118 113 113 118 135 144 148 150 148 150 153 155 151 149 145 146 149 150 143 138 132 132 126 118 102 100 77 19 283 250 244
172 149 156 183 206 223 199 206 223 150 152 159 160 157 142 129 125 123 126 128 123 127 137 145 150 148 149 151 157 162 156 153 152 151 152 149 147 145 154 135 129 118 110 112 97 118 279 268 265
197 185 176 182 191 199 183 203 187 98 87 101 113 114 111 115 126 126 129 129 129 135 140 141 145 142 143 149 154 152 146 140 144 147 146 151 154 154 150 138 127 120 114 103 97 194 253 262 270
187 214 257 295 201 174 190 173 170 129 104 105 115 116 114 113 109 110 115 124 130 134 135 140 143 138 141 145 144 142 135 130 131 134 129 135 136 136 135 134 130 127 124 117 138 209 263 272 261
226 204 186 179 180 198 194 192 188 166 150 130 126 119 110 98 89 98 110 113 117 117 116 116 126 134 133 137 143 134 127 127 128 131 134 131 126 123 136 142 142 143 130 111 109 227 268 264 264
182 189 203 204 230 198 189 183 48 145 141 130 116 101 95 90 87 88 91 97 104 103 103 99 102 106 113 113 121 121 120 120 120 127 133 133 135 140 149 159 159 157 155 139 232 253 264 266 269
210 187 183 182 234 246 208 246 32 89 102 114 113 103 95 86 80 82 83 82 91 98 102 101 100 101 105 105 108 115 115 118 124 129 129 127 133 134 142 151 167 171 175 180 217 254 256 259 268
Height
1496 1498 1501 1504 1507 1506 1500 1487 1478 1477 1477 1479 1480 1482 1485 1490 1495 1507 1508 1508 1509 1510 1513 1517 1520 1522 1525 1527 1530 1532 1534 1535 1537 1538 1540 1541 1542 1544 1544 1545 1546 1547 1548 1548 1549 1549 1550 1550 1551
1495 1499 1503 1504 1504 1505 1494 1482 1478 1476 1479 1481 1483 1485 1488 1494 1498 1502 1505 1508 1509 1511 1514 1517 1520 1523 1525 1528 1530 1533 1535 1536 1538 1540 1541 1543 1544 1545 1546 1547 1547 1548 1549 1549 1550 1551 1551 1551 1552
1494 1499 1502 1499 1497 1495 1485 1474 1475 1476 1479 1483 1486 1489 1492 1497 1500 1502 1505 1508 1510 1512 1515 1517 1521 1523 1526 1529 1531 1533 1535 1537 1539 1541 1542 1544 1545 1546 1547 1548 1548 1549 1550 1550 1551 1551 1552 1552 1553
1495 1499 1499 1496 1491 1482 1476 1472 1472 1476 1481 1484 1487 1491 1495 1499 1501 1503 1506 1509 1511 1513 1515 1518 1521 1524 1527 1529 1532 1534 1536 1538 1540 1542 1543 1544 1546 1547 1548 1548 1549 1550 1551 1551 1552 1552 1552 1553 1553
1495 1496 1496 1493 1486 1477 1472 1472 1473 1477 1481 1484 1487 1491 1496 1500 1501 1503 1506 1510 1511 1513 1516 1519 1522 1525 1527 1530 1532 1535 1537 1539 1541 1542 1544 1545 1546 1547 1548 1549 1550 1551 1551 1552 1552 1552 1553 1553 1553
1494 1491 1492 1490 1482 1474 1471 1472 1475 1477 1481 1484 1487 1491 1497 1500 1501 1504 1507 1510 1512 1514 1516 1519 1522 1525 1528 1530 1533 1535 1537 1539 1541 1543 1544 1545 1547 1548 1549 1549 1550 1551 1551 1552 1552 1553 1553 1553 1554
1491 1488 1485 1481 1478 1473 1470 1472 1475 1478 1480 1483 1486 1490 1496 1499 1501 1504 1508 1510 1512 1514 1516 1519 1522 1525 1528 1531 1533 1535 1538 1540 1541 1543 1545 1546 1547 1548 1549 1550 1550 1551 1552 1552 1552 1553 1553 1553 1554
1486 1485 1481 1478 1475 1471 1468 1471 1475 1478 1480 1483 1486 1489 1494 1497 1500 1504 1507 1510 1512 1515 1517 1520 1522 1525 1528 1531 1533 1536 1538 1540 1542 1543 1545 1546 1547 1548 1549 1550 1551 1551 1552 1552 1552 1553 1553 1553 1554
1484 1486 1480 1474 1472 1469 1468 1471 1475 1478 1481 1484 1486 1488 1491 1495 1499 1503 1506 1509 1512 1515 1517 1520 1522 1525 1528 1530 1533 1535 1538 1540 1542 1543 1545 1546 1547 1548 1549 1550 1551 1551 1552 1552 1552 1553 1553 1553 1554
1481 1481 1473 1469 1468 1468 1469 1471 1476 1479 1482 1485 1487 1489 1492 1495 1499 1502 1505 1508 1511 1514 1517 1520 1522 1524 1527 1530 1532 1535 1537 1540 1542 1543 1545 1546 1547 1548 1549 1550 1551 1551 1552 1552 1552 1553 1553 1553 1553
1475 1473 1470 1469 1469 1469 1471 1473 1476 1479 1482 1484 1486 1489 1492 1495 1499 1502 1505 1508 1511 1513 1516 1519 1521 1524 1526 1529 1532 1534 1537 1539 1541 1543 1544 1546 1547 1548 1549 1550 1550 1551 1551 1552 1552 1552 1553 1553 1553
1471 1470 1470 1470 1471 1472 1473 1475 1477 1479 1482 1483 1485 1488 1491 1494 1498 1501 1504 1507 1510 1513 1515 1518 1521 1523 1526 1529 1531 1534 1536 1538 1540 1542 1544 1545 1546 1547 1548 1549 1550 1551 1551 1551 1552 1552 1552 1553 1553
1469 1469 1470 1471 1472 1473 1475 1477 1478 1479 1481 1482 1484 1487 1491 1494 1497 1501 1503 1506 1509 1511 1514 1517 1520 1522 1525 1528 1530 1533 1535 1537 1539 1541 1543 1544 1545 1546 1547 1548 1549 1550 1550 1551 1551 1551 1552 1552 1552
1466 1469 1470 1471 1472 1474 1476 1477 1478 1479 1481 1483 1485 1487 1490 1493 1496 1499 1502 1505 1507 1510 1513 1516 1519 1521 1524 1527 1529 1532 1534 1536 1538 1540 1542 1543 1544 1545 1546 1547 1548 1549 1549 1550 1550 1550 1551 1551 1551
1465 1468 1469 1469 1471 1474 1477 1478 1477 1478 1480 1482 1485 1487 1490 1493 1495 1498 1500 1503 1506 1509 1511 1514 1517 1520 1523 1526 1528 1531 1533 1535 1537 1539 1540 1542 1543 1544 1545 1546 1547 1548 1548 1549 1549 1549 1549 1550 1550
1464 1468 1471 1467 1469 1471 1478 1479 1474 1476 1479 1481 1484 1486 1489 1492 1494 1497 1499 1502 1504 1507 1510 1513 1516 1518 1521 1524 1527 1529 1531 1534 1536 1538 1539 1540 1542 1543 1544 1544 1545 1546 1547 1547 1548 1548 1548 1548 1548
1464 1467 1467 1466 1465 1468 1474 1475 1472 1474 1476 1479 1482 1484 1487 1490 1493 1496 1498 1500 1503 1505 1508 1511 1514 1516 1520 1522 1525 1527 1530 1532 1534 1536 1537 1539 1540 1541 1542 1543 1543 1544 1545 1546 1546 1546 1546 1546 1546
1461 1461 1461 1463 1462 1466 1471 1472 1471 1471 1474 1476 1479 1482 1485 1488 1491 1494 1496 1499 1501 1504 1506 1509 1512 1515 1518 1520 1523 1526 1528 1530 1532 1534 1536 1537 1538 1539 1540 1541 1542 1543 1543 1544 1544 1544 1544 1544 1544
1453 1456 1458 1458 1459 1464 1468 1469 1470 1470 1472 1474 1477 1480 1483 1487 1490 1492 1494 1497 1499 1502 1504 1507 1510 1512 1515 1518 1520 1523 1526 1528 1530 1532 1534 1535 1536 1537 1538 1539 1540 1541 1542 1542 1542 1543 1543 1542 1542
1452 1455 1457 1457 1458 1462 1466 1467 1467 1468 1470 1472 1475 1478 1481 1484 1487 1490 1492 1495 1497 1499 1502 1505 1508 1510 1513 1516 1518 1521 1524 1526 1528 1530 1531 1533 1534 1535 1536 1537 1538 1539 1539 1540 1540 1541 1541 1541 1540
1452 1454 1455 1458 1460 1461 1466 1469 1466 1466 1468 1471 1473 1476 1479 1482 1484 1487 1490 1492 1494 1497 1500 1502 1505 1508 1511 1513 1516 1519 1521 1524 1526 1527 1529 1531 1532 1533 1534 1535 1536 1537 1537 1538 1538 1539 1539 1539 1539
1454 1451 1453 1457 1464 1469 1466 1475 1465 1464 1466 1468 1471 1474 1476 1479 1482 1485 1487 1489 1492 1494 1497 1500 1503 1505 1508 1511 1513 1515 1518 1520 1523 1525 1527 1528 1530 1531 1532 1533 1534 1535 1535 1536 1536 1537 1537 1537 1536
1450 1450 1454 1457 1463 1468 1466 1472 1463 1459 1464 1466 1468 1471 1474 1477 1480 1482 1484 1487 1489 1492 1494 1497 1500 1503 1506 1508 1511 1513 1516 1518 1520 1522 1524 1526 1527 1529 1530 1531 1532 1532 1533 1534 1534 1534 1534 1534 1534
1449 1454 1457 1460 1466 1473 1464 1468 1464 1457 1456 1461 1465 1468 1471 1475 1478 1480 1483 1485 1487 1489 1492 1494 1497 1500 1503 1506 1509 1511 1513 1515 1517 1519 1521 1523 1525 1526 1527 1529 1529 1530 1531 1531 1531 1532 1532 1532 1532
1451 1459 1469 1473 1474 1469 1456 1460 1462 1455 1453 1456 1461 1466 1469 1472 1476 1478 1480 1483 1485 1487 1489 1492 1495 1498 1500 1503 1506 1508 1511 1513 1515 1516 1518 1520 1522 1523 1525 1526 1527 1527 1528 1529 1529 1529 1529 1529 1529
1451 1453 1462 1468 1469 1462 1454 1460 1460 1455 1454 1456 1460 1464 1468 1471 1474 1476 1479 1481 1483 1485 1487 1490 1492 1495 1498 1500 1503 1506 1508 1510 1512 1514 1516 1517 1519 1521 1522 1523 1524 1525 1525 1526 1526 1526 1526 1526 1526
1451 1452 1450 1456 1456 1461 1460 1458 1460 1456 1457 1459 1461 1465 1468 1471 1473 1475 1477 1479 1481 1483 1485 1488 1490 1493 1496 1498 1501 1503 1506 1508 1510 1511 1513 1515 1517 1518 1519 1520 1521 1522 1523 1523 1523 1523 1523 1523 1523
1451 1451 1455 1460 1461 1459 1456 1456 1460 1459 1459 1461 1463 1465 1468 1470 1472 1474 1476 1478 1480 1482 1484 1486 1489 1491 1493 1496 1499 1501 1503 1506 1508 1509 1511 1512 1514 1515 1516 1517 1518 1519 1520 1520 1520 1520 1520 1520 1519
1453 1455 1455 1456 1456 1459 1460 1461 1455 1455 1458 1461 1464 1466 1468 1470 1472 1474 1476 1478 1479 1481 1483 1485 1487 1489 1491 1494 1496 1499 1501 1504 1505 1507 1508 1510 1511 1513 1514 1515 1515 1516 1516 1517 1517 1517 1516 1516 1516
1451 1453 1456 1462 1462 1456 1459 1469 1457 1457 1459 1462 1465 1467 1469 1471 1473 1474 1476 1477 1479 1480 1482 1484 1486 1487 1490 1492 1494 1497 1499 1501 1503 1505 1506 1508 1509 1510 1511 1512 1513 1513 1513 1513 1513 1513 1513 1512 1512